Total_Precipitation_Accumulation
0.93 0.68 1.13 1.21 1.08 1.03 1.06 1.08 1.07 1.10 1.09 1.11 1.05 0.97 0.91 0.79 0.69 0.60 0.51 0.43 0.46 0.55 0.52 0.47 0.42 0.36 0.29 0.26 0.29 0.37 0.45 0.54 0.60 0.62 0.72 0.79 0.77 0.85 0.98 1.19 1.38 1.57 1.15
0.72 0.61 1.11 1.25 1.09 0.96 0.94 0.96 1.05 1.05 1.02 1.01 0.99 1.01 0.84 0.67 0.61 0.56 0.50 0.45 0.43 0.47 0.48 0.47 0.46 0.41 0.34 0.35 0.39 0.43 0.46 0.51 0.62 0.68 0.87 0.95 0.88 0.88 0.82 0.95 1.20 1.37 1.13
0.70 0.64 0.90 1.17 1.03 0.91 0.88 0.91 0.99 0.99 0.97 0.98 0.99 1.04 0.79 0.65 0.61 0.57 0.56 0.53 0.49 0.42 0.45 0.52 0.54 0.51 0.43 0.45 0.48 0.50 0.53 0.55 0.66 0.78 1.19 1.79 1.27 0.93 0.91 0.99 1.07 1.04 1.11
0.80 0.76 0.92 1.20 1.06 0.93 0.91 1.00 1.05 1.05 1.05 1.10 1.07 0.93 0.71 0.67 0.65 0.62 0.64 0.65 0.57 0.45 0.42 0.44 0.49 0.49 0.46 0.50 0.52 0.49 0.56 0.60 0.72 0.86 1.26 1.78 1.68 1.23 1.10 1.16 1.11 0.97 1.11
0.82 0.89 1.18 1.29 1.08 0.98 0.93 1.00 1.13 1.17 1.13 1.13 1.04 0.79 0.68 0.67 0.69 0.68 0.71 0.69 0.63 0.58 0.50 0.45 0.45 0.43 0.43 0.45 0.50 0.53 0.58 0.68 0.88 0.96 1.30 1.69 1.96 1.39 1.07 1.21 1.29 1.10 1.17
0.77 0.79 0.98 1.21 1.07 0.98 1.00 1.08 1.06 0.98 0.98 1.04 0.95 0.77 0.65 0.70 0.71 0.69 0.66 0.62 0.63 0.61 0.56 0.53 0.49 0.45 0.45 0.42 0.47 0.55 0.64 0.74 0.88 1.09 1.36 1.71 1.86 1.33 1.05 1.17 1.32 1.35 1.35
0.81 0.74 0.81 1.02 0.97 0.91 0.96 1.05 1.03 0.93 0.96 0.97 0.92 0.85 0.70 0.67 0.70 0.71 0.62 0.55 0.54 0.55 0.54 0.53 0.50 0.46 0.43 0.44 0.46 0.50 0.62 0.60 0.75 1.07 1.30 1.66 1.50 1.15 0.99 1.12 1.36 1.49 1.44
0.85 0.79 0.76 0.89 0.88 0.84 0.88 0.95 0.96 0.94 1.02 0.99 0.86 0.81 0.74 0.64 0.64 0.63 0.59 0.59 0.56 0.57 0.57 0.55 0.49 0.44 0.43 0.45 0.46 0.48 0.55 0.48 0.50 0.77 1.04 1.43 1.43 1.27 1.01 1.00 1.20 1.36 1.44
0.93 0.87 0.82 0.79 0.81 0.88 1.01 0.99 0.93 1.00 1.09 1.05 0.84 0.77 0.77 0.64 0.56 0.55 0.57 0.58 0.57 0.61 0.65 0.58 0.48 0.42 0.45 0.48 0.48 0.48 0.51 0.52 0.54 0.68 0.82 1.16 1.23 1.23 1.04 0.97 1.08 1.21 1.40
0.89 0.81 0.75 0.73 0.75 0.79 0.90 0.97 0.91 0.89 0.98 0.98 0.86 0.83 0.84 0.68 0.57 0.56 0.55 0.58 0.62 0.65 0.71 0.66 0.56 0.50 0.50 0.52 0.52 0.49 0.49 0.45 0.48 0.58 0.80 0.88 1.08 1.12 0.98 0.91 0.95 1.00 1.09
0.77 0.74 0.70 0.68 0.70 0.75 0.84 0.86 0.94 0.95 0.98 0.90 0.84 0.87 0.78 0.58 0.54 0.56 0.51 0.63 0.74 0.88 0.89 0.80 0.71 0.63 0.58 0.50 0.49 0.50 0.39 0.34 0.52 0.62 0.77 0.90 1.10 1.09 0.93 0.88 0.92 0.85 0.86
0.77 0.74 0.69 0.71 0.69 0.68 0.72 0.97 1.13 1.00 0.90 0.79 0.81 0.78 0.76 0.73 0.71 0.52 0.53 0.69 0.76 0.85 0.88 0.83 0.78 0.65 0.48 0.38 0.43 0.44 0.29 0.33 0.46 0.54 0.61 0.89 1.11 1.16 1.02 0.91 0.88 0.82 0.76
0.71 0.70 0.65 0.64 0.58 0.57 0.71 0.89 1.08 1.13 1.09 1.05 0.90 0.89 0.85 0.76 0.65 0.51 0.49 0.54 0.59 0.68 0.67 0.74 0.72 0.52 0.42 0.42 0.44 0.36 0.31 0.37 0.45 0.53 0.67 0.98 1.16 1.18 1.11 0.97 0.91 0.84 0.78
0.62 0.64 0.60 0.58 0.53 0.51 0.51 0.62 0.78 0.84 0.83 0.84 0.85 0.79 0.80 0.81 0.74 0.64 0.58 0.62 0.65 0.63 0.69 0.76 0.74 0.60 0.52 0.44 0.42 0.41 0.41 0.42 0.49 0.61 0.72 0.93 1.18 1.24 1.22 1.09 1.04 0.95 0.87
0.58 0.58 0.59 0.60 0.57 0.63 0.61 0.57 0.57 0.62 0.68 0.73 0.80 0.72 0.67 0.70 0.73 0.75 0.69 0.74 0.70 0.68 0.71 0.73 0.61 0.60 0.60 0.51 0.47 0.48 0.54 0.48 0.57 0.62 0.72 0.86 1.18 1.51 1.54 1.40 1.24 1.09 1.03
0.54 0.63 0.65 0.60 0.63 0.61 0.56 0.59 0.63 0.62 0.66 0.69 0.73 0.66 0.60 0.60 0.63 0.74 0.73 0.78 0.69 0.71 0.79 0.72 0.65 0.68 0.68 0.59 0.50 0.52 0.54 0.51 0.58 0.65 0.74 0.88 1.04 1.42 1.75 1.76 1.62 1.42 1.21
0.48 0.60 0.70 0.68 0.70 0.65 0.60 0.63 0.67 0.66 0.63 0.66 0.69 0.62 0.58 0.61 0.62 0.74 0.78 0.77 0.75 0.78 0.81 0.84 0.84 0.79 0.71 0.63 0.57 0.54 0.54 0.54 0.60 0.65 0.68 0.86 0.89 0.93 1.31 1.74 1.89 1.80 1.55
0.44 0.53 0.65 0.66 0.71 0.74 0.73 0.73 0.70 0.65 0.67 0.72 0.75 0.70 0.66 0.64 0.67 0.87 0.92 0.81 0.86 0.97 1.00 1.03 0.99 0.90 0.81 0.78 0.76 0.70 0.62 0.59 0.63 0.68 0.69 0.74 0.79 0.72 0.78 0.96 1.23 1.45 1.66
0.45 0.49 0.54 0.60 0.80 0.83 0.78 0.84 0.84 0.80 0.86 0.89 0.92 0.89 0.84 0.81 0.89 1.06 1.13 1.04 1.02 1.17 1.14 1.04 1.05 1.06 0.98 0.97 0.94 0.93 0.80 0.70 0.70 0.67 0.76 0.86 0.86 0.84 0.86 0.69 0.76 0.91 1.26
0.38 0.42 0.48 0.57 0.69 0.81 0.95 1.03 1.11 1.12 1.11 1.23 1.30 1.29 1.12 1.07 1.13 1.28 1.38 1.34 1.30 1.41 1.41 1.29 1.38 1.37 1.28 1.31 1.19 1.09 1.00 0.94 0.89 0.87 0.87 0.95 1.01 0.92 0.94 0.83 0.77 0.65 0.80
0.30 0.33 0.39 0.56 0.72 0.88 0.99 1.13 1.38 1.54 1.64 1.63 1.63 1.70 1.62 1.44 1.52 1.64 1.61 1.82 1.89 1.87 1.87 1.81 1.93 1.96 1.69 1.51 1.78 1.76 1.36 1.09 0.97 0.97 1.03 1.07 1.11 1.11 1.09 1.02 0.95 0.77 0.66
0.21 0.25 0.32 0.47 0.70 0.93 1.15 1.33 1.52 1.84 2.00 2.00 2.06 2.01 1.96 1.85 1.87 1.79 1.87 2.08 2.13 2.24 2.33 2.17 2.30 2.38 2.07 1.76 2.14 2.56 2.08 1.67 1.11 0.89 0.98 1.08 1.20 1.23 1.18 1.03 0.99 0.91 0.81
0.15 0.19 0.25 0.38 0.59 0.89 1.19 1.45 1.64 1.88 2.14 2.24 2.15 2.10 2.13 2.21 2.26 2.15 2.11 2.23 2.25 2.32 2.52 2.56 2.51 2.61 2.53 2.20 2.15 2.59 2.46 2.13 1.69 1.13 1.00 1.07 1.22 1.31 1.33 1.28 1.13 1.05 0.96
0.17 0.18 0.23 0.37 0.52 0.73 0.99 1.32 1.57 1.84 2.15 2.22 2.20 2.17 2.21 2.33 2.42 2.38 2.33 2.39 2.39 2.35 2.48 2.57 2.55 2.75 2.92 2.64 2.37 2.14 2.06 2.09 2.08 1.63 1.21 1.13 1.28 1.36 1.39 1.30 1.27 1.28 1.26
0.22 0.23 0.29 0.43 0.56 0.74 0.98 1.30 1.63 1.82 1.99 2.19 2.20 2.12 2.05 2.12 2.14 2.12 2.24 2.39 2.41 2.38 2.39 2.58 2.69 2.87 2.86 2.77 2.62 2.48 2.29 2.11 1.78 1.85 1.71 1.46 1.43 1.33 1.39 1.48 1.48 1.51 1.50
0.32 0.35 0.42 0.54 0.74 0.88 0.97 1.12 1.29 1.50 1.78 1.92 2.02 2.06 2.07 2.07 1.95 1.87 1.98 2.09 2.18 2.23 2.22 2.28 2.43 2.58 2.74 2.89 2.82 2.63 2.50 2.38 2.19 2.05 1.79 1.63 1.70 1.52 1.39 1.39 1.44 1.49 1.65